Location: Bazincourt
(49.5016°N, 1.8100°E)
Time: 05:09:26
(UTC+00:00)

Cosmos 2227 Rocket - Visible Passes

Search period start: 06 June 2026 00:00
Search period end: 16 June 2026 00:00
Orbit: 837 x 844 km, 71.0° (Epoch: 5 June)

Date Brightness Start Highest point End Pass type
(mag) Time Alt. Az. Time Alt. Az. Time Alt. Az.
6 Jun 5.7 02:18:27 10° N 02:20:17 11° NNE 02:22:07 10° NE visible
6 Jun 3.0 20:40:03 10° SW 20:45:37 57° NW 20:51:14 10° NNE visible
6 Jun 5.2 22:27:30 10° WNW 22:30:57 16° NNW 22:34:23 10° N visible
7 Jun 5.7 02:03:11 10° N 02:04:50 11° NNE 02:06:28 10° NE visible
7 Jun 5.2 22:11:57 10° WNW 22:15:30 17° NNW 22:19:04 10° N visible
8 Jun 5.8 01:47:57 10° N 01:49:23 11° NNE 01:50:48 10° NE visible
8 Jun 5.2 21:56:25 10° WNW 22:00:04 17° NW 22:03:44 10° N visible
9 Jun 5.9 01:32:44 10° N 01:33:54 11° NNE 01:35:05 10° NNE visible
9 Jun 5.3 21:40:53 10° WNW 21:44:38 18° NW 21:48:24 10° N visible
10 Jun 6.0 01:17:35 10° NNE 01:18:27 10° NNE 01:19:19 10° NNE visible
10 Jun 4.6 02:59:36 10° NNW 03:04:32 29° NE 03:09:26 10° ESE visible
10 Jun 5.3 21:25:21 10° W 21:29:12 18° NW 21:33:04 10° N visible
11 Jun 5.9 01:02:38 10° NNE 01:02:59 10° NNE 01:03:21 10° NNE visible
11 Jun 4.6 02:44:15 10° NNW 02:49:07 28° NE 02:53:57 10° ESE visible
11 Jun 5.4 21:09:49 10° W 21:13:46 19° NW 21:17:44 10° N visible
12 Jun 4.6 02:28:53 10° NNW 02:33:42 27° NE 02:38:28 10° ESE visible
12 Jun 5.3 20:54:18 10° W 20:58:20 20° NW 21:02:23 10° N visible
13 Jun 4.6 02:13:32 10° NNW 02:18:17 26° NE 02:22:59 10° E visible
13 Jun 5.2 20:38:47 10° W 20:42:54 20° NW 20:47:03 10° N visible
14 Jun 4.7 01:58:12 10° NNW 02:02:52 25° NE 02:07:30 10° E visible
15 Jun 4.7 01:42:51 10° NNW 01:47:27 24° NE 01:52:00 10° E visible
